Bullhead City, AZ

10:35 AM MST on July 28, 2016 (GMT -0700)
Laughlin-Bullhead International

Weather History for KIFP - June, 2014

Change the Weather History Date:

Saturday, June 7, 2014

  Actual Average Record
Temperature  
Mean Temperature 90 °F -  
Max Temperature 104 °F 98 °F 114 °F (2013)
Min Temperature 77 °F 76 °F 54 °F (1993)
Cooling Degree Days 26    
Growing Degree Days 40 (Base 50)    
Moisture  
Dew Point -    
Average Humidity    
Maximum Humidity    
Minimum Humidity    
Precipitation  
Precipitation 0.00 in - - ()
Sea Level Pressure  
Sea Level Pressure 29.63 in    
Wind  
Wind Speed 4 mph (SSW)    
Max Wind Speed 15 mph    
Max Gust Speed 22 mph    
Visibility 10 miles    
Events      
Averages and records for this station are not official NWS values.
T = Trace of Precipitation, MM = Missing Value Source: NWS Daily Summary

Daily Weather History Graph

Daily Weather History Graph

Search for Another Location

Airport or City:

Trip Planner

Search our weather history database for the weather conditions in past years. The results will help you decide how hot, cold, wet, or windy it might be!

Date:

Astronomy

Jun. 07, 2014 Rise Set
Actual Time 5:23 AM MST 7:50 PM MST
Civil Twilight 4:54 AM MST 8:20 PM MST
Nautical Twilight 4:17 AM MST 8:56 PM MST
Astronomical Twilight 3:37 AM MST 9:37 PM MST
Moon 2:23 PM MST (6/7) 1:35 AM MST (6/7)
Length of Visible Light 15h 26m
Length of Day
14h 27m
Waxing Gibbous, 69% of the Moon is Illuminated
Jun 7
Waxing Gibbous
Jun 12
Full
Jun 19
Last Quarter
Jun 27
New
Jul 5
First Quarter

Hourly Weather History & Observations

Time (MST) Temp. Dew Point Humidity Pressure Visibility Wind Dir Wind Speed Gust Speed Precip Events Conditions
12:15 AM 89.6 °F - N/A% 29.59 in 10.0 mi Calm Calm - N/A   Clear
12:35 AM 89.6 °F - N/A% 29.59 in 10.0 mi Calm Calm - N/A   Clear
12:55 AM 86.0 °F - N/A% 29.59 in 10.0 mi Calm Calm - N/A   Clear
1:15 AM 86.0 °F - N/A% 29.60 in 10.0 mi Calm Calm - N/A   Clear
1:35 AM 86.0 °F - N/A% 29.60 in 10.0 mi Calm Calm - N/A   Clear
1:55 AM 82.4 °F - N/A% 29.60 in 10.0 mi Calm Calm - N/A   Clear
2:15 AM 82.4 °F - N/A% 29.61 in 10.0 mi Calm Calm - N/A   Clear
2:35 AM 80.6 °F - N/A% 29.61 in 10.0 mi Calm Calm - N/A   Clear
2:55 AM 80.6 °F - N/A% 29.61 in 10.0 mi Calm Calm - N/A   Clear
3:15 AM 80.6 °F - N/A% 29.61 in 10.0 mi Calm Calm - N/A   Clear
3:35 AM 80.6 °F - N/A% 29.61 in 10.0 mi Calm Calm - N/A   Clear
3:55 AM 80.6 °F - N/A% 29.62 in 10.0 mi Calm Calm - N/A   Clear
4:15 AM 80.6 °F - N/A% 29.62 in 10.0 mi Calm Calm - N/A   Clear
4:55 AM 80.6 °F - N/A% 29.63 in 10.0 mi Calm Calm - N/A   Clear
5:15 AM 77.0 °F - N/A% 29.63 in 10.0 mi Calm Calm - N/A   Clear
5:55 AM 77.0 °F - N/A% 29.65 in 10.0 mi Calm Calm - N/A   Clear
6:15 AM 77.0 °F - N/A% 29.65 in 10.0 mi Calm Calm - N/A   Clear
6:35 AM 80.6 °F - N/A% 29.66 in 10.0 mi Calm Calm - N/A   Clear
6:55 AM 77.0 °F - N/A% 29.66 in 10.0 mi NNE 3.5 mph - N/A   Clear
7:15 AM 82.4 °F - N/A% 29.67 in 10.0 mi Calm Calm - N/A   Clear
7:35 AM 82.4 °F - N/A% 29.68 in 10.0 mi Calm Calm - N/A   Clear
7:55 AM 84.2 °F - N/A% 29.69 in 10.0 mi Calm Calm - N/A   Clear
8:15 AM 86.0 °F - N/A% 29.69 in 10.0 mi SSW 5.8 mph - N/A   Clear
8:35 AM 86.0 °F - N/A% 29.69 in 10.0 mi SW 6.9 mph - N/A   Clear
8:55 AM 87.8 °F - N/A% 29.70 in 10.0 mi SW 5.8 mph - N/A   Clear
9:15 AM 87.8 °F - N/A% 29.69 in 10.0 mi SW 5.8 mph - N/A   Clear
9:35 AM 89.6 °F - N/A% 29.69 in 10.0 mi WSW 5.8 mph - N/A   Clear
9:55 AM 91.4 °F - N/A% 29.69 in 10.0 mi WSW 4.6 mph - N/A   Clear
10:15 AM 91.4 °F - N/A% 29.69 in 10.0 mi WSW 6.9 mph - N/A   Clear
10:35 AM 93.2 °F - N/A% 29.69 in 10.0 mi West 4.6 mph - N/A   Clear
11:15 AM 95.0 °F - N/A% 29.67 in 10.0 mi SSW 9.2 mph 16.1 mph N/A   Clear
11:35 AM 98.6 °F - N/A% 29.67 in 10.0 mi SW 6.9 mph 17.3 mph N/A   Clear
11:55 AM 98.6 °F - N/A% 29.66 in 10.0 mi SW 10.4 mph 17.3 mph N/A   Clear
12:15 PM 98.6 °F - N/A% 29.65 in 10.0 mi SW 9.2 mph - N/A   Clear
12:35 PM 100.4 °F - N/A% 29.64 in 10.0 mi SSW 9.2 mph 19.6 mph N/A   Clear
12:55 PM 102.2 °F - N/A% 29.64 in 10.0 mi WSW 11.5 mph 21.9 mph N/A   Clear
1:15 PM 102.2 °F - N/A% 29.63 in 10.0 mi South 10.4 mph - N/A   Clear
1:55 PM 104.0 °F - N/A% 29.62 in 10.0 mi SW 11.5 mph 18.4 mph N/A   Clear
2:15 PM 104.0 °F - N/A% 29.61 in 10.0 mi SSW 6.9 mph 16.1 mph N/A   Clear
2:35 PM 104.0 °F - N/A% 29.61 in 10.0 mi SSW 12.7 mph - N/A   Clear
2:55 PM 104.0 °F - N/A% 29.60 in 10.0 mi WSW 13.8 mph 17.3 mph N/A   Clear
3:15 PM 104.0 °F - N/A% 29.60 in 10.0 mi South 15.0 mph 20.7 mph N/A   Clear
3:35 PM 104.0 °F - N/A% 29.59 in 10.0 mi SW 9.2 mph - N/A   Clear
3:55 PM 104.0 °F - N/A% 29.59 in 10.0 mi SW 11.5 mph 17.3 mph N/A   Clear
4:15 PM 104.0 °F - N/A% 29.59 in 10.0 mi SSW 9.2 mph 16.1 mph N/A   Unknown
4:35 PM 104.0 °F - N/A% 29.58 in 10.0 mi South 15.0 mph 21.9 mph N/A   Clear
4:55 PM 104.0 °F - N/A% 29.58 in 10.0 mi South 11.5 mph 16.1 mph N/A   Clear
5:15 PM 104.0 °F - N/A% 29.58 in 10.0 mi SSW 10.4 mph - N/A   Clear
5:35 PM 104.0 °F - N/A% 29.57 in 10.0 mi SSW 12.7 mph - N/A   Clear
5:55 PM 104.0 °F - N/A% 29.57 in 10.0 mi SSW 5.8 mph - N/A   Clear
6:15 PM 102.2 °F - N/A% 29.57 in 10.0 mi SSE 11.5 mph - N/A   Clear
6:35 PM 102.2 °F - N/A% 29.57 in 10.0 mi South 12.7 mph - N/A   Clear
6:55 PM 102.2 °F - N/A% 29.57 in 10.0 mi SSE 15.0 mph - N/A   Clear
7:15 PM 102.2 °F - N/A% 29.57 in 10.0 mi SSE 12.7 mph - N/A   Clear
7:35 PM 100.4 °F - N/A% 29.58 in 10.0 mi South 12.7 mph - N/A   Clear
7:55 PM 100.4 °F - N/A% 29.59 in 10.0 mi South 8.1 mph - N/A   Clear
8:15 PM 98.6 °F - N/A% 29.59 in 10.0 mi South 12.7 mph - N/A   Clear
8:35 PM 98.6 °F - N/A% 29.59 in 10.0 mi SSE 12.7 mph - N/A   Clear
8:55 PM 98.6 °F - N/A% 29.61 in 10.0 mi SSE 11.5 mph - N/A   Clear
9:15 PM 95.0 °F - N/A% 29.62 in 10.0 mi SSE 10.4 mph - N/A   Clear
9:35 PM 95.0 °F - N/A% 29.63 in 10.0 mi SSE 12.7 mph - N/A   Clear
9:55 PM 93.2 °F - N/A% 29.64 in 10.0 mi Calm Calm - N/A   Clear
10:15 PM 91.4 °F - N/A% 29.65 in 10.0 mi South 3.5 mph - N/A   Clear
10:35 PM 89.6 °F - N/A% 29.65 in 10.0 mi Calm Calm - N/A   Clear
11:15 PM 89.6 °F - N/A% 29.65 in 10.0 mi Calm Calm - N/A   Clear
11:35 PM 89.6 °F - N/A% 29.65 in 10.0 mi Calm Calm - N/A   Clear
11:55 PM 89.6 °F - N/A% 29.65 in 10.0 mi Calm Calm - N/A   Clear